Weather History for KPSX - April, 2013

Change the Weather History Date:

Friday, April 12, 2013

  Actual Average Record
Temperature  
Mean Temperature 64 °F -  
Max Temperature 80 °F 76 °F 89 °F (1943)
Min Temperature 50 °F 62 °F 40 °F (1951)
Growing Degree Days 14 (Base 50)    
Moisture  
Dew Point 51 °F    
Average Humidity 64    
Maximum Humidity 86    
Minimum Humidity 32    
Precipitation  
Precipitation 0.00 in - - ()
Sea Level Pressure  
Sea Level Pressure 29.94 in    
Wind  
Wind Speed 6 mph (East)    
Max Wind Speed 17 mph    
Max Gust Speed 22 mph    
Visibility 10 miles    
Events      
Averages and records for this station are not official NWS values.
T = Trace of Precipitation, MM = Missing Value Source: NWS Daily Summary

Daily Weather History Graph

Daily Weather History Graph

Search for Another Location

Airport or City:

Trip Planner

Search our weather history database for the weather conditions in past years. The results will help you decide how hot, cold, wet, or windy it might be!

Date:

Astronomy

Apr. 12, 2013 Rise Set
Actual Time 7:02 AM CDT 7:49 PM CDT
Civil Twilight 6:38 AM CDT 8:13 PM CDT
Nautical Twilight 6:09 AM CDT 8:42 PM CDT
Astronomical Twilight 5:40 AM CDT 9:11 PM CDT
Moon 8:23 AM CDT (4/12) 10:09 PM CDT (4/12)
Length of Visible Light 13h 35m
Length of Day
12h 47m
Waxing Crescent, 5% of the Moon is Illuminated
Apr 12
Waxing Crescent
Apr 18
First Quarter
Apr 25
Full
May 2
Last Quarter
May 9
New

Hourly Weather History & Observations

Time (CDT) Temp. Dew Point Humidity Pressure Visibility Wind Dir Wind Speed Gust Speed Precip Events Conditions
12:53 AM 54.0 °F 46.9 °F 77% 29.88 in 10.0 mi East 5.8 mph - N/A   Clear
1:53 AM 55.9 °F 48.0 °F 75% 29.90 in 10.0 mi Calm Calm - N/A   Clear
3:53 AM 51.1 °F 46.9 °F 86% 29.90 in 10.0 mi North 4.6 mph - N/A   Clear
4:53 AM 52.0 °F 46.9 °F 83% 29.90 in 10.0 mi NE 3.5 mph - N/A   Clear
5:53 AM 51.1 °F 45.0 °F 80% 29.91 in 10.0 mi NE 5.8 mph - N/A   Clear
6:53 AM 50.0 °F 45.0 °F 83% 29.94 in 10.0 mi NE 4.6 mph - N/A   Clear
7:53 AM 54.0 °F 48.0 °F 80% 29.96 in 10.0 mi NE 3.5 mph - N/A   Clear
8:53 AM 62.1 °F 54.0 °F 75% 29.98 in 10.0 mi East 3.5 mph - N/A   Clear
9:53 AM 68.0 °F 53.1 °F 59% 30.00 in 10.0 mi SE 3.5 mph - N/A   Clear
10:53 AM 70.0 °F 52.0 °F 53% 30.01 in 10.0 mi Variable 6.9 mph - N/A   Clear
11:53 AM 73.0 °F 52.0 °F 48% 29.99 in 10.0 mi ESE 8.1 mph - N/A   Clear
12:53 PM 75.9 °F 52.0 °F 43% 29.98 in 10.0 mi ESE 4.6 mph - N/A   Clear
1:53 PM 79.0 °F 46.9 °F 32% 29.96 in 10.0 mi ESE 10.4 mph - N/A   Clear
2:53 PM 79.0 °F 51.1 °F 38% 29.93 in 10.0 mi East 9.2 mph - N/A   Clear
3:53 PM 79.0 °F 55.9 °F 45% 29.90 in 10.0 mi East 15.0 mph - N/A   Clear
4:53 PM 75.9 °F 55.9 °F 50% 29.90 in 10.0 mi SE 16.1 mph 21.9 mph N/A   Clear
5:53 PM 73.0 °F 55.0 °F 53% 29.90 in 10.0 mi SE 17.3 mph - N/A   Clear
6:53 PM 70.0 °F 55.0 °F 59% 29.91 in 10.0 mi SE 15.0 mph - N/A   Clear
8:53 PM 66.0 °F 55.9 °F 70% 29.93 in 10.0 mi ESE 8.1 mph - N/A   Clear
9:53 PM 64.9 °F 55.9 °F 73% 29.94 in 10.0 mi ESE 6.9 mph - N/A   Clear
10:53 PM 63.0 °F 55.9 °F 78% 29.95 in 10.0 mi ESE 6.9 mph - N/A   Clear
11:53 PM 62.1 °F 55.0 °F 78% 29.96 in 10.0 mi ESE 5.8 mph - N/A   Clear